| time (UTC) | temp C | wind direction | speed KPH | gust KPH | rain 1hr cm | rain 24hr cm | rain mn cm | humidity % | barometer mb |
| 20260510051638 | 18 | 93 | 0.0 | 0.0 | 0.00 | 0.00 | 0.00 | 97 | 1024.9 |
| 20260510051135 | 18 | 102 | 3.2 | 3.2 | 0.00 | 0.00 | 0.00 | 96 | 1024.8 |
| 20260510050632 | 18 | 92 | 1.6 | 3.2 | 0.00 | 0.00 | 0.00 | 96 | 1024.8 |
| 20260510050130 | 18 | 99 | 0.0 | 0.0 | 0.00 | 0.00 | 0.00 | 96 | 1024.7 |
| 20260510045626 | 18 | 102 | 1.6 | 3.2 | 0.00 | 0.00 | 0.00 | 96 | 1024.8 |
| 20260510045123 | 18 | 83 | 3.2 | 3.2 | 0.00 | 0.00 | 0.00 | 96 | 1024.7 |
| 20260510044619 | 18 | 102 | 0.0 | 0.0 | 0.00 | 0.00 | 0.00 | 95 | 1024.9 |
| 20260510044117 | 18 | 101 | 0.0 | 3.2 | 0.00 | 0.00 | 0.00 | 95 | 1024.7 |
| 20260510043612 | 18 | 102 | 0.0 | 0.0 | 0.00 | 0.00 | 0.00 | 95 | 1024.7 |
| 20260510043108 | 18 | 108 | 0.0 | 3.2 | 0.00 | 0.00 | 0.00 | 95 | 1024.9 |
| 20260510042607 | 18 | 108 | 0.0 | 0.0 | 0.00 | 0.00 | 0.00 | 94 | 1024.8 |
| 20260510042102 | 18 | 108 | 0.0 | 0.0 | 0.00 | 0.00 | 0.00 | 94 | 1024.7 |
| 20260510041600 | 18 | 108 | 0.0 | 0.0 | 0.00 | 0.00 | 0.00 | 93 | 1024.7 |
| 20260510041057 | 19 | 108 | 0.0 | 0.0 | 0.00 | 0.00 | 0.00 | 93 | 1024.6 |
| 20260510040554 | 19 | 108 | 0.0 | 0.0 | 0.00 | 0.00 | 0.00 | 92 | 1024.7 |
| 20260510040049 | 20 | 116 | 0.0 | 3.2 | 0.00 | 0.00 | 0.00 | 92 | 1024.8 |
| 20260510035546 | 20 | 113 | 3.2 | 3.2 | 0.00 | 0.00 | 0.00 | 91 | 1024.4 |
| 20260510035045 | 20 | 130 | 1.6 | 3.2 | 0.00 | 0.00 | 0.00 | 91 | 1024.7 |
| 20260510034544 | 20 | 129 | 0.0 | 0.0 | 0.00 | 0.00 | 0.00 | 90 | 1024.6 |
| 20260510034041 | 20 | 117 | 0.0 | 3.2 | 0.00 | 0.00 | 0.00 | 90 | 1024.6 |
| 20260510033536 | 20 | 118 | 3.2 | 8.0 | 0.00 | 0.00 | 0.00 | 89 | 1024.6 |
| 20260510033035 | 20 | 120 | 0.0 | 3.2 | 0.00 | 0.00 | 0.00 | 89 | 1024.4 |
| 20260510032531 | 20 | 116 | 3.2 | 3.2 | 0.00 | 0.00 | 0.00 | 89 | 1024.6 |
| 20260510032026 | 20 | 124 | 1.6 | 3.2 | 0.00 | 0.00 | 0.00 | 88 | 1024.6 |
| 20260510031521 | 20 | 126 | 1.6 | 3.2 | 0.00 | 0.00 | 0.00 | 88 | 1024.1 |
| 20260510031018 | 20 | 132 | 1.6 | 3.2 | 0.00 | 0.00 | 0.00 | 87 | 1024.2 |
| 20260510030513 | 20 | 127 | 1.6 | 3.2 | 0.00 | 0.00 | 0.00 | 87 | 1024.4 |
| 20260510030011 | 20 | 124 | 0.0 | 3.2 | 0.00 | 0.00 | 0.00 | 87 | 1024.1 |
| 20260510025508 | 20 | 131 | 0.0 | 3.2 | 0.00 | 0.00 | 0.00 | 86 | 1024.1 |
| 20260510025006 | 20 | 124 | 0.0 | 3.2 | 0.00 | 0.00 | 0.00 | 86 | 1024.0 |
| 20260510024502 | 20 | 112 | 0.0 | 0.0 | 0.00 | 0.00 | 0.00 | 85 | 1023.8 |
| 20260510023958 | 21 | 101 | 1.6 | 3.2 | 0.00 | 0.00 | 0.00 | 85 | 1023.8 |
| 20260510023454 | 21 | 128 | 3.2 | 8.0 | 0.00 | 0.00 | 0.00 | 85 | 1023.9 |
| 20260510022951 | 21 | 121 | 4.8 | 8.0 | 0.00 | 0.00 | 0.00 | 84 | 1023.8 |
| 20260510022450 | 21 | 164 | 1.6 | 3.2 | 0.00 | 0.00 | 0.00 | 84 | 1023.7 |
| 20260510021949 | 21 | 128 | 0.0 | 8.0 | 0.00 | 0.00 | 0.00 | 84 | 1023.6 |
| 20260510021448 | 21 | 124 | 0.0 | 0.0 | 0.00 | 0.00 | 0.00 | 84 | 1023.6 |
| 20260510020945 | 21 | 135 | 3.2 | 8.0 | 0.00 | 0.00 | 0.00 | 83 | 1023.6 |
| 20260510020444 | 21 | 120 | 3.2 | 3.2 | 0.00 | 0.00 | 0.00 | 83 | 1023.3 |
| 20260510015940 | 21 | 126 | 3.2 | 8.0 | 0.00 | 0.00 | 0.00 | 83 | 1023.3 |
| 20260510015436 | 21 | 132 | 3.2 | 8.0 | 0.00 | 0.00 | 0.00 | 83 | 1023.3 |
| 20260510014931 | 21 | 131 | 0.0 | 3.2 | 0.00 | 0.00 | 0.00 | 82 | 1023.2 |
| 20260510014429 | 22 | 126 | 0.0 | 3.2 | 0.00 | 0.00 | 0.00 | 82 | 1023.1 |
| 20260510013926 | 22 | 108 | 0.0 | 11.3 | 0.00 | 0.00 | 0.00 | 81 | 1022.9 |
| 20260510013420 | 22 | 124 | 4.8 | 8.0 | 0.00 | 0.00 | 0.00 | 81 | 1023.1 |
| 20260510012916 | 22 | 137 | 3.2 | 8.0 | 0.00 | 0.00 | 0.00 | 80 | 1023.0 |
| 20260510012411 | 22 | 133 | 1.6 | 3.2 | 0.00 | 0.00 | 0.00 | 80 | 1023.2 |
| 20260510011906 | 22 | 112 | 6.4 | 11.3 | 0.00 | 0.00 | 0.00 | 80 | 1022.9 |
| 20260510011401 | 22 | 138 | 1.6 | 3.2 | 0.00 | 0.00 | 0.00 | 80 | 1022.9 |
| 20260510010858 | 22 | 137 | 3.2 | 3.2 | 0.00 | 0.00 | 0.00 | 79 | 1022.7 |
| 20260510010355 | 23 | 122 | 1.6 | 14.5 | 0.00 | 0.00 | 0.00 | 78 | 1022.8 |
| 20260510005852 | 23 | 101 | 4.8 | 8.0 | 0.00 | 0.00 | 0.00 | 78 | 1022.7 |
| 20260510005348 | 23 | 126 | 0.0 | 3.2 | 0.00 | 0.00 | 0.00 | 77 | 1022.6 |
| 20260510004846 | 23 | 126 | 3.2 | 8.0 | 0.00 | 0.00 | 0.00 | 76 | 1022.4 |
| 20260510004343 | 23 | 127 | 1.6 | 8.0 | 0.00 | 0.00 | 0.00 | 75 | 1022.5 |
| 20260510003841 | 23 | 120 | 0.0 | 8.0 | 0.00 | 0.00 | 0.00 | 75 | 1022.4 |
| 20260510003338 | 24 | 123 | 3.2 | 8.0 | 0.00 | 0.00 | 0.00 | 75 | 1022.3 |
| 20260510002836 | 24 | 129 | 0.0 | 3.2 | 0.00 | 0.00 | 0.00 | 75 | 1022.4 |
| 20260510002333 | 24 | 119 | 0.0 | 8.0 | 0.00 | 0.00 | 0.00 | 75 | 1022.3 |
| 20260510001830 | 24 | 132 | 1.6 | 3.2 | 0.00 | 0.00 | 0.00 | 74 | 1022.1 |
| 20260510001328 | 25 | 111 | 1.6 | 3.2 | 0.00 | 0.00 | 0.00 | 74 | 1022.1 |
| 20260510000824 | 25 | 89 | 3.2 | 3.2 | 0.00 | 0.00 | 0.00 | 73 | 1022.1 |
| 20260510000322 | 25 | 63 | 3.2 | 8.0 | 0.00 | 0.00 | 0.00 | 73 | 1022.0 |
| 20260509235819 | 25 | 93 | 4.8 | 8.0 | 0.00 | 0.00 | 0.00 | 72 | 1022.2 |
| 20260509235315 | 25 | 67 | 3.2 | 3.2 | 0.00 | 0.00 | 0.00 | 72 | 1021.9 |
| 20260509234811 | 25 | 96 | 1.6 | 8.0 | 0.00 | 0.00 | 0.00 | 72 | 1022.2 |
| 20260509234308 | 25 | 67 | 4.8 | 8.0 | 0.00 | 0.00 | 0.00 | 71 | 1021.8 |
| 20260509233806 | 25 | 92 | 4.8 | 8.0 | 0.00 | 0.00 | 0.00 | 71 | 1021.7 |
| 20260509233303 | 25 | 141 | 0.0 | 14.5 | 0.00 | 0.00 | 0.00 | 72 | 1021.7 |
| 20260509232759 | 25 | 77 | 4.8 | 8.0 | 0.00 | 0.00 | 0.00 | 71 | 1021.5 |
| 20260509232257 | 25 | 75 | 6.4 | 17.7 | 0.00 | 0.00 | 0.00 | 69 | 1021.6 |
| 20260509231753 | 25 | 73 | 1.6 | 3.2 | 0.00 | 0.00 | 0.00 | 69 | 1021.7 |
| 20260509231250 | 25 | 80 | 3.2 | 3.2 | 0.00 | 0.00 | 0.00 | 68 | 1021.8 |
| 20260509230748 | 26 | 118 | 1.6 | 8.0 | 0.00 | 0.00 | 0.00 | 68 | 1021.2 |
| 20260509230244 | 26 | 107 | 3.2 | 8.0 | 0.00 | 0.00 | 0.00 | 67 | 1021.3 |
| 20260509225739 | 26 | 73 | 14.5 | 14.5 | 0.00 | 0.00 | 0.00 | 64 | 1021.5 |
| 20260509225236 | 26 | 93 | 0.0 | 8.0 | 0.00 | 0.00 | 0.00 | 64 | 1021.6 |
| 20260509224731 | 26 | 188 | 1.6 | 8.0 | 0.00 | 0.00 | 0.00 | 64 | 1021.3 |
| 20260509224229 | 27 | 108 | 1.6 | 3.2 | 0.00 | 0.00 | 0.00 | 63 | 1021.3 |
| 20260509223725 | 27 | 148 | 1.6 | 11.3 | 0.00 | 0.00 | 0.00 | 62 | 1021.3 |
| 20260509223223 | 26 | 141 | 0.0 | 0.0 | 0.00 | 0.00 | 0.00 | 60 | 1021.5 |
| 20260509222719 | 27 | 91 | 11.3 | 17.7 | 0.00 | 0.00 | 0.00 | 61 | 1021.3 |
| 20260509222214 | 26 | 135 | 1.6 | 3.2 | 0.00 | 0.00 | 0.00 | 60 | 1021.4 |
| 20260509221711 | 27 | 110 | 1.6 | 3.2 | 0.00 | 0.00 | 0.00 | 59 | 1021.3 |
| 20260509221207 | 27 | 102 | 1.6 | 3.2 | 0.00 | 0.00 | 0.00 | 59 | 1021.4 |
| 20260509220703 | 27 | 134 | 1.6 | 8.0 | 0.00 | 0.00 | 0.00 | 59 | 1021.3 |
| 20260509220159 | 27 | 154 | 3.2 | 11.3 | 0.00 | 0.00 | 0.00 | 62 | 1021.4 |
| 20260509215655 | 27 | 125 | 3.2 | 8.0 | 0.00 | 0.00 | 0.00 | 59 | 1021.1 |
| 20260509215152 | 27 | 115 | 1.6 | 11.3 | 0.00 | 0.00 | 0.00 | 62 | 1021.2 |
| 20260509214649 | 26 | 131 | 0.0 | 11.3 | 0.00 | 0.00 | 0.00 | 60 | 1021.1 |
| 20260509214146 | 26 | 140 | 6.4 | 14.5 | 0.00 | 0.00 | 0.00 | 62 | 1021.4 |
| 20260509213643 | 26 | 112 | 3.2 | 14.5 | 0.00 | 0.00 | 0.00 | 62 | 1021.4 |
| 20260509213138 | 26 | 138 | 3.2 | 11.3 | 0.00 | 0.00 | 0.00 | 61 | 1021.2 |
| 20260509212636 | 27 | 146 | 8.0 | 11.3 | 0.00 | 0.00 | 0.00 | 62 | 1021.4 |
| 20260509212133 | 26 | 151 | 0.0 | 11.3 | 0.00 | 0.00 | 0.00 | 63 | 1021.5 |
| 20260509211629 | 27 | 109 | 0.0 | 11.3 | 0.00 | 0.00 | 0.00 | 61 | 1021.3 |
| 20260509211126 | 26 | 51 | 1.6 | 11.3 | 0.00 | 0.00 | 0.00 | 59 | 1021.5 |
| 20260509210622 | 26 | 126 | 3.2 | 3.2 | 0.00 | 0.00 | 0.00 | 61 | 1021.5 |
| 20260509210120 | 26 | 24 | 4.8 | 8.0 | 0.00 | 0.00 | 0.00 | 62 | 1021.7 |
| 20260509205614 | 25 | 72 | 12.9 | 14.5 | 0.00 | 0.00 | 0.00 | 63 | 1021.7 |
| 20260509205109 | 25 | 59 | 4.8 | 8.0 | 0.00 | 0.00 | 0.00 | 68 | 1021.7 |
| 20260509204605 | 25 | 72 | 3.2 | 8.0 | 0.00 | 0.00 | 0.00 | 65 | 1021.7 |
| 20260509204102 | 25 | 70 | 6.4 | 14.5 | 0.00 | 0.00 | 0.00 | 65 | 1021.8 |
| 20260509203558 | 26 | 78 | 9.7 | 11.3 | 0.00 | 0.00 | 0.00 | 65 | 1021.7 |
| 20260509203057 | 26 | 91 | 11.3 | 17.7 | 0.00 | 0.00 | 0.00 | 63 | 1021.8 |
| 20260509202556 | 26 | 119 | 1.6 | 8.0 | 0.00 | 0.00 | 0.00 | 61 | 1021.9 |
| 20260509202052 | 25 | 100 | 0.0 | 0.0 | 0.00 | 0.00 | 0.00 | 64 | 1022.3 |
| 20260509201547 | 25 | 64 | 8.0 | 11.3 | 0.00 | 0.00 | 0.00 | 66 | 1022.0 |
| 20260509201045 | 25 | 92 | 8.0 | 14.5 | 0.00 | 0.00 | 0.00 | 66 | 1022.1 |
| 20260509200544 | 26 | 86 | 4.8 | 11.3 | 0.00 | 0.00 | 0.00 | 64 | 1022.1 |
| 20260509200042 | 26 | 70 | 8.0 | 11.3 | 0.00 | 0.00 | 0.00 | 62 | 1022.2 |
| 20260509195537 | 27 | 65 | 3.2 | 3.2 | 0.00 | 0.00 | 0.00 | 61 | 1022.2 |
| 20260509195037 | 26 | 126 | 3.2 | 11.3 | 0.00 | 0.00 | 0.00 | 63 | 1022.1 |
| 20260509194532 | 26 | 144 | 3.2 | 17.7 | 0.00 | 0.00 | 0.00 | 61 | 1022.5 |
| 20260509194030 | 26 | 173 | 8.0 | 14.5 | 0.00 | 0.00 | 0.00 | 61 | 1022.5 |
| 20260509193530 | 26 | 131 | 4.8 | 11.3 | 0.00 | 0.00 | 0.00 | 64 | 1022.7 |
| 20260509193027 | 25 | 128 | 1.6 | 3.2 | 0.00 | 0.00 | 0.00 | 64 | 1022.8 |
| 20260509192524 | 25 | 67 | 8.0 | 14.5 | 0.00 | 0.00 | 0.00 | 64 | 1022.9 |
| 20260509192019 | 26 | 21 | 6.4 | 11.3 | 0.00 | 0.00 | 0.00 | 65 | 1023.0 |
| 20260509191513 | 25 | 133 | 0.0 | 3.2 | 0.00 | 0.00 | 0.00 | 65 | 1022.7 |
| 20260509191009 | 25 | 94 | 0.0 | 0.0 | 0.00 | 0.00 | 0.00 | 70 | 1023.0 |
| 20260509190506 | 25 | 94 | 0.0 | 3.2 | 0.00 | 0.00 | 0.00 | 67 | 1023.0 |
| 20260509190005 | 25 | 99 | 0.0 | 0.0 | 0.00 | 0.00 | 0.00 | 68 | 1022.9 |
| 20260509185501 | 25 | 82 | 3.2 | 11.3 | 0.00 | 0.00 | 0.00 | 66 | 1022.9 |
| 20260509184958 | 25 | 115 | 0.0 | 3.2 | 0.00 | 0.00 | 0.00 | 69 | 1022.7 |
| 20260509184456 | 26 | 84 | 1.6 | 3.2 | 0.00 | 0.00 | 0.00 | 67 | 1022.8 |
| 20260509183953 | 25 | 81 | 1.6 | 11.3 | 0.00 | 0.00 | 0.00 | 64 | 1022.8 |
| 20260509183452 | 25 | 110 | 0.0 | 11.3 | 0.00 | 0.00 | 0.00 | 66 | 1022.7 |
| 20260509182949 | 25 | 80 | 6.4 | 11.3 | 0.00 | 0.00 | 0.00 | 64 | 1022.7 |
| 20260509182445 | 25 | 99 | 1.6 | 8.0 | 0.00 | 0.00 | 0.00 | 64 | 1022.7 |
| 20260509181943 | 25 | 26 | 8.0 | 11.3 | 0.00 | 0.00 | 0.00 | 63 | 1022.6 |
| 20260509181441 | 26 | 63 | 9.7 | 11.3 | 0.00 | 0.00 | 0.00 | 62 | 1022.7 |
| 20260509180938 | 25 | 50 | 8.0 | 17.7 | 0.00 | 0.00 | 0.00 | 66 | 1022.8 |
| 20260509180434 | 25 | 10 | 9.7 | 11.3 | 0.00 | 0.00 | 0.00 | 65 | 1022.8 |
| 20260509175931 | 25 | 76 | 6.4 | 22.5 | 0.00 | 0.00 | 0.00 | 66 | 1022.8 |
| 20260509175427 | 25 | 40 | 8.0 | 14.5 | 0.00 | 0.00 | 0.00 | 64 | 1022.8 |
| 20260509174923 | 26 | 63 | 4.8 | 17.7 | 0.00 | 0.00 | 0.00 | 63 | 1022.9 |
| 20260509174419 | 25 | 71 | 8.0 | 14.5 | 0.00 | 0.00 | 0.00 | 62 | 1022.9 |
| 20260509173916 | 25 | 145 | 1.6 | 11.3 | 0.00 | 0.00 | 0.00 | 64 | 1023.1 |
| 20260509173415 | 26 | 92 | 3.2 | 3.2 | 0.00 | 0.00 | 0.00 | 64 | 1022.9 |
| 20260509172912 | 26 | 97 | 3.2 | 11.3 | 0.00 | 0.00 | 0.00 | 62 | 1023.1 |
| 20260509172409 | 25 | 109 | 1.6 | 8.0 | 0.00 | 0.00 | 0.00 | 63 | 1023.2 |
| 20260509171904 | 26 | 56 | 14.5 | 17.7 | 0.00 | 0.00 | 0.00 | 61 | 1023.4 |
| 20260509171401 | 26 | 126 | 6.4 | 8.0 | 0.00 | 0.00 | 0.00 | 62 | 1023.2 |
| 20260509170857 | 25 | 110 | 1.6 | 11.3 | 0.00 | 0.00 | 0.00 | 64 | 1023.4 |
| 20260509170353 | 25 | 46 | 11.3 | 14.5 | 0.00 | 0.00 | 0.00 | 61 | 1023.4 |
| 20260509165848 | 25 | 83 | 3.2 | 8.0 | 0.00 | 0.00 | 0.00 | 63 | 1023.5 |
| 20260509165343 | 25 | 149 | 0.0 | 3.2 | 0.00 | 0.00 | 0.00 | 64 | 1023.6 |
| 20260509164839 | 25 | 62 | 1.6 | 8.0 | 0.00 | 0.00 | 0.00 | 62 | 1023.5 |
| 20260509164335 | 25 | 347 | 8.0 | 11.3 | 0.00 | 0.00 | 0.00 | 64 | 1023.6 |
| 20260509163831 | 25 | 4 | 9.7 | 11.3 | 0.00 | 0.00 | 0.00 | 64 | 1023.3 |
| 20260509163328 | 25 | 87 | 6.4 | 11.3 | 0.00 | 0.00 | 0.00 | 66 | 1023.3 |
| 20260509162828 | 24 | 83 | 3.2 | 8.0 | 0.00 | 0.00 | 0.00 | 66 | 1023.4 |
| 20260509162326 | 24 | 8 | 8.0 | 11.3 | 0.00 | 0.00 | 0.00 | 65 | 1023.3 |
| 20260509161822 | 24 | 327 | 6.4 | 22.5 | 0.00 | 0.00 | 0.00 | 65 | 1023.1 |
| 20260509161319 | 24 | 87 | 3.2 | 8.0 | 0.00 | 0.00 | 0.00 | 67 | 1023.1 |
| 20260509160814 | 23 | 152 | 3.2 | 14.5 | 0.00 | 0.00 | 0.00 | 72 | 1023.1 |
| 20260509160310 | 23 | 295 | 8.0 | 14.5 | 0.00 | 0.00 | 0.00 | 71 | 1023.1 |
| 20260509155806 | 22 | 74 | 3.2 | 3.2 | 0.00 | 0.00 | 0.00 | 72 | 1023.2 |
| 20260509155306 | 22 | 329 | 14.5 | 17.7 | 0.00 | 0.00 | 0.00 | 75 | 1023.2 |
| 20260509154759 | 23 | 318 | 8.0 | 17.7 | 0.00 | 0.00 | 0.00 | 75 | 1023.2 |
| 20260509154256 | 22 | 46 | 1.6 | 3.2 | 0.00 | 0.00 | 0.00 | 75 | 1023.2 |
| 20260509153753 | 22 | 332 | 9.7 | 14.5 | 0.00 | 0.00 | 0.00 | 77 | 1023.3 |
| 20260509153248 | 22 | 285 | 0.0 | 8.0 | 0.00 | 0.00 | 0.00 | 78 | 1023.3 |
| 20260509152745 | 22 | 99 | 0.0 | 8.0 | 0.00 | 0.00 | 0.00 | 77 | 1023.4 |
| 20260509152242 | 21 | 46 | 3.2 | 8.0 | 0.00 | 0.00 | 0.00 | 78 | 1023.3 |
| 20260509151739 | 21 | 278 | 6.4 | 11.3 | 0.00 | 0.00 | 0.00 | 78 | 1023.2 |
| 20260509151235 | 21 | 314 | 4.8 | 14.5 | 0.00 | 0.00 | 0.00 | 79 | 1023.2 |
| 20260509150734 | 21 | 124 | 3.2 | 3.2 | 0.00 | 0.00 | 0.00 | 80 | 1023.2 |
| 20260509150233 | 21 | 352 | 8.0 | 8.0 | 0.00 | 0.00 | 0.00 | 80 | 1023.4 |
| 20260509145729 | 20 | 338 | 9.7 | 11.3 | 0.00 | 0.00 | 0.00 | 81 | 1023.2 |
| 20260509145228 | 20 | 347 | 6.4 | 11.3 | 0.00 | 0.00 | 0.00 | 81 | 1023.4 |
| 20260509144725 | 20 | 74 | 3.2 | 11.3 | 0.00 | 0.00 | 0.00 | 84 | 1023.3 |
| 20260509144222 | 20 | 329 | 6.4 | 14.5 | 0.00 | 0.00 | 0.00 | 83 | 1023.4 |
| 20260509143719 | 20 | 357 | 6.4 | 8.0 | 0.00 | 0.00 | 0.00 | 83 | 1023.4 |
| 20260509143216 | 20 | 359 | 6.4 | 8.0 | 0.00 | 0.00 | 0.00 | 85 | 1023.5 |
| 20260509142712 | 19 | 0 | 4.8 | 11.3 | 0.00 | 0.00 | 0.00 | 86 | 1023.4 |
| 20260509142209 | 19 | 1 | 8.0 | 14.5 | 0.00 | 0.00 | 0.00 | 87 | 1023.5 |
| 20260509141704 | 19 | 325 | 9.7 | 14.5 | 0.00 | 0.00 | 0.00 | 87 | 1023.6 |
| 20260509141202 | 18 | 282 | 8.0 | 11.3 | 0.00 | 0.00 | 0.00 | 88 | 1023.5 |
| 20260509140658 | 18 | 329 | 9.7 | 14.5 | 0.00 | 0.00 | 0.00 | 88 | 1023.4 |
| 20260509140156 | 18 | 317 | 3.2 | 8.0 | 0.00 | 0.00 | 0.00 | 88 | 1023.6 |
| 20260509135653 | 18 | 274 | 4.8 | 11.3 | 0.00 | 0.00 | 0.00 | 88 | 1023.6 |
| 20260509135151 | 18 | 309 | 4.8 | 11.3 | 0.00 | 0.00 | 0.00 | 89 | 1023.6 |
| 20260509134647 | 18 | 121 | 1.6 | 11.3 | 0.00 | 0.00 | 0.00 | 88 | 1023.6 |
| 20260509134145 | 18 | 28 | 3.2 | 8.0 | 0.00 | 0.00 | 0.00 | 89 | 1023.6 |
| 20260509133642 | 18 | 79 | 3.2 | 11.3 | 0.00 | 0.00 | 0.00 | 88 | 1023.5 |
| 20260509133139 | 17 | 131 | 0.0 | 8.0 | 0.00 | 0.00 | 0.00 | 88 | 1023.8 |
| 20260509132637 | 17 | 141 | 3.2 | 3.2 | 0.00 | 0.00 | 0.00 | 88 | 1023.6 |
| 20260509132135 | 17 | 141 | 0.0 | 3.2 | 0.00 | 0.00 | 0.00 | 88 | 1023.8 |
| 20260509131631 | 17 | 105 | 3.2 | 3.2 | 0.00 | 0.00 | 0.00 | 87 | 1023.6 |
| 20260509131128 | 17 | 102 | 0.0 | 0.0 | 0.00 | 0.00 | 0.00 | 90 | 1023.9 |
| 20260509130624 | 16 | 102 | 0.0 | 0.0 | 0.00 | 0.00 | 0.00 | 92 | 1023.7 |
| 20260509130121 | 16 | 90 | 0.0 | 0.0 | 0.00 | 0.00 | 0.00 | 93 | 1023.6 |
| 20260509125617 | 16 | 90 | 1.6 | 3.2 | 0.00 | 0.00 | 0.00 | 92 | 1023.7 |
| 20260509125114 | 16 | 79 | 0.0 | 3.2 | 0.00 | 0.00 | 0.00 | 91 | 1023.6 |
| 20260509124610 | 16 | 90 | 1.6 | 8.0 | 0.00 | 0.00 | 0.00 | 91 | 1023.4 |
| 20260509124108 | 16 | 80 | 3.2 | 3.2 | 0.00 | 0.00 | 0.00 | 93 | 1023.3 |
| 20260509123606 | 15 | 89 | 1.6 | 3.2 | 0.00 | 0.00 | 0.00 | 95 | 1023.3 |
| 20260509123102 | 15 | 83 | 3.2 | 3.2 | 0.00 | 0.00 | 0.00 | 97 | 1023.2 |
| 20260509122558 | 15 | 96 | 0.0 | 3.2 | 0.00 | 0.00 | 0.00 | 98 | 1023.2 |
| 20260509122055 | 14 | 93 | 0.0 | 0.0 | 0.00 | 0.00 | 0.00 | 99 | 1023.3 |
| 20260509121552 | 13 | 98 | 0.0 | 0.0 | 0.00 | 0.00 | 0.00 | 99 | 1022.9 |
| 20260509121049 | 13 | 90 | 0.0 | 3.2 | 0.00 | 0.00 | 0.00 | 99 | 1022.9 |
| 20260509120547 | 13 | 41 | 3.2 | 8.0 | 0.00 | 0.00 | 0.00 | 99 | 1022.9 |
| 20260509120046 | 13 | 80 | 1.6 | 3.2 | 0.00 | 0.00 | 0.00 | 99 | 1022.8 |
| 20260509115542 | 12 | 90 | 1.6 | 3.2 | 0.00 | 0.00 | 0.00 | 99 | 1022.8 |
| 20260509115040 | 12 | 82 | 0.0 | 0.0 | 0.00 | 0.00 | 0.00 | 99 | 1022.7 |
| 20260509114538 | 12 | 82 | 0.0 | 3.2 | 0.00 | 0.00 | 0.00 | 99 | 1022.9 |
| 20260509114037 | 12 | 83 | 0.0 | 0.0 | 0.00 | 0.00 | 0.00 | 99 | 1022.9 |
| 20260509113534 | 12 | 83 | 0.0 | 0.0 | 0.00 | 0.00 | 0.00 | 99 | 1022.7 |
| 20260509113032 | 12 | 83 | 0.0 | 0.0 | 0.00 | 0.00 | 0.00 | 99 | 1022.6 |
| 20260509112528 | 12 | 83 | 0.0 | 3.2 | 0.00 | 0.00 | 0.00 | 99 | 1022.5 |
| 20260509112025 | 12 | 91 | 0.0 | 3.2 | 0.00 | 0.00 | 0.00 | 99 | 1022.5 |
| 20260509111522 | 12 | 90 | 1.6 | 3.2 | 0.00 | 0.00 | 0.00 | 99 | 1022.5 |
| 20260509111019 | 12 | 72 | 3.2 | 8.0 | 0.00 | 0.00 | 0.00 | 99 | 1022.5 |
| 20260509110516 | 12 | 79 | 3.2 | 3.2 | 0.00 | 0.00 | 0.00 | 99 | 1022.5 |
| 20260509110013 | 12 | 94 | 1.6 | 3.2 | 0.00 | 0.00 | 0.00 | 99 | 1022.7 |
| 20260509105511 | 12 | 115 | 0.0 | 3.2 | 0.00 | 0.00 | 0.00 | 99 | 1022.6 |
| 20260509105009 | 12 | 99 | 0.0 | 0.0 | 0.00 | 0.00 | 0.00 | 99 | 1022.8 |
| 20260509104505 | 13 | 99 | 0.0 | 3.2 | 0.00 | 0.00 | 0.00 | 99 | 1022.6 |
| 20260509104002 | 13 | 89 | 0.0 | 3.2 | 0.00 | 0.00 | 0.00 | 99 | 1022.5 |
| 20260509103500 | 13 | 125 | 0.0 | 0.0 | 0.00 | 0.00 | 0.00 | 99 | 1022.6 |
| 20260509102958 | 13 | 125 | 0.0 | 0.0 | 0.00 | 0.00 | 0.00 | 99 | 1022.5 |
| 20260509102455 | 13 | 131 | 0.0 | 0.0 | 0.00 | 0.00 | 0.00 | 99 | 1022.4 |
| 20260509101951 | 13 | 99 | 0.0 | 0.0 | 0.00 | 0.00 | 0.00 | 99 | 1022.2 |
| 20260509101448 | 13 | 99 | 0.0 | 0.0 | 0.00 | 0.00 | 0.00 | 98 | 1022.1 |
| 20260509100945 | 13 | 99 | 0.0 | 0.0 | 0.00 | 0.00 | 0.00 | 98 | 1021.9 |
| 20260509100442 | 13 | 99 | 0.0 | 0.0 | 0.00 | 0.00 | 0.00 | 98 | 1021.7 |
| 20260509095939 | 13 | 99 | 0.0 | 0.0 | 0.00 | 0.00 | 0.00 | 98 | 1021.4 |
| 20260509095436 | 13 | 99 | 0.0 | 0.0 | 0.00 | 0.00 | 0.00 | 98 | 1021.5 |
| 20260509094933 | 13 | 99 | 0.0 | 0.0 | 0.00 | 0.00 | 0.00 | 98 | 1021.4 |
| 20260509094429 | 13 | 100 | 0.0 | 0.0 | 0.00 | 0.00 | 0.00 | 98 | 1021.6 |
| 20260509093927 | 13 | 102 | 3.2 | 3.2 | 0.00 | 0.00 | 0.00 | 98 | 1021.4 |
| 20260509093424 | 13 | 97 | 3.2 | 3.2 | 0.00 | 0.00 | 0.00 | 98 | 1021.5 |
| 20260509092923 | 13 | 95 | 3.2 | 3.2 | 0.00 | 0.00 | 0.00 | 98 | 1021.5 |
| 20260509092420 | 13 | 95 | 0.0 | 3.2 | 0.00 | 0.00 | 0.00 | 98 | 1021.4 |
| 20260509091919 | 13 | 103 | 0.0 | 8.0 | 0.00 | 0.00 | 0.00 | 98 | 1021.3 |
| 20260509091415 | 13 | 94 | 3.2 | 3.2 | 0.00 | 0.00 | 0.00 | 98 | 1021.5 |
| 20260509090912 | 14 | 105 | 0.0 | 0.0 | 0.00 | 0.00 | 0.00 | 98 | 1021.5 |
| 20260509090409 | 14 | 93 | 1.6 | 3.2 | 0.00 | 0.00 | 0.00 | 98 | 1021.4 |
| 20260509085907 | 14 | 97 | 0.0 | 0.0 | 0.00 | 0.00 | 0.00 | 98 | 1021.6 |
| 20260509085404 | 14 | 98 | 1.6 | 3.2 | 0.00 | 0.00 | 0.00 | 97 | 1021.7 |
| 20260509084900 | 14 | 92 | 1.6 | 3.2 | 0.00 | 0.00 | 0.00 | 97 | 1021.7 |
| 20260509084357 | 13 | 95 | 1.6 | 3.2 | 0.00 | 0.00 | 0.00 | 97 | 1021.6 |
| 20260509083855 | 14 | 95 | 1.6 | 3.2 | 0.00 | 0.00 | 0.00 | 97 | 1021.5 |
| 20260509083351 | 13 | 110 | 0.0 | 0.0 | 0.00 | 0.00 | 0.00 | 97 | 1021.5 |
| 20260509082848 | 14 | 115 | 0.0 | 0.0 | 0.00 | 0.00 | 0.00 | 97 | 1021.5 |
| 20260509082345 | 14 | 122 | 0.0 | 0.0 | 0.00 | 0.00 | 0.00 | 97 | 1021.5 |
| 20260509081842 | 14 | 123 | 0.0 | 0.0 | 0.00 | 0.00 | 0.00 | 97 | 1021.3 |
| 20260509081339 | 14 | 95 | 0.0 | 0.0 | 0.00 | 0.00 | 0.00 | 97 | 1021.2 |
| 20260509080837 | 14 | 95 | 0.0 | 0.0 | 0.00 | 0.00 | 0.00 | 97 | 1021.4 |
| 20260509080335 | 14 | 95 | 0.0 | 0.0 | 0.00 | 0.00 | 0.00 | 97 | 1021.2 |
| 20260509075833 | 14 | 95 | 0.0 | 0.0 | 0.00 | 0.00 | 0.00 | 97 | 1021.4 |
| 20260509075329 | 14 | 102 | 0.0 | 0.0 | 0.00 | 0.00 | 0.00 | 97 | 1021.6 |
| 20260509074827 | 14 | 133 | 0.0 | 0.0 | 0.00 | 0.00 | 0.00 | 97 | 1021.7 |
| 20260509074324 | 14 | 147 | 0.0 | 0.0 | 0.00 | 0.00 | 0.00 | 97 | 1022.0 |
| 20260509073820 | 14 | 133 | 0.0 | 3.2 | 0.00 | 0.00 | 0.00 | 97 | 1022.0 |
| 20260509073317 | 14 | 156 | 1.6 | 3.2 | 0.00 | 0.00 | 0.00 | 97 | 1022.1 |
| 20260509072814 | 14 | 144 | 0.0 | 0.0 | 0.00 | 0.00 | 0.00 | 97 | 1022.4 |
| 20260509072310 | 14 | 144 | 0.0 | 0.0 | 0.00 | 0.00 | 0.00 | 97 | 1022.2 |
| 20260509071807 | 14 | 144 | 0.0 | 0.0 | 0.00 | 0.00 | 0.00 | 97 | 1022.2 |
| 20260509071304 | 14 | 144 | 0.0 | 0.0 | 0.00 | 0.00 | 0.00 | 97 | 1022.3 |
| 20260509070801 | 14 | 143 | 0.0 | 0.0 | 0.00 | 0.00 | 0.00 | 97 | 1022.6 |
| 20260509070257 | 14 | 143 | 0.0 | 0.0 | 0.00 | 0.00 | 0.00 | 97 | 1022.5 |
| 20260509065754 | 13 | 143 | 0.0 | 0.0 | 0.00 | 0.00 | 0.00 | 97 | 1022.5 |
| 20260509065250 | 13 | 139 | 0.0 | 0.0 | 0.00 | 0.00 | 0.00 | 97 | 1022.7 |
| 20260509064746 | 13 | 139 | 0.0 | 0.0 | 0.00 | 0.00 | 0.00 | 97 | 1022.6 |
| 20260509064244 | 14 | 115 | 0.0 | 0.0 | 0.00 | 0.00 | 0.00 | 96 | 1022.7 |
| 20260509063741 | 14 | 115 | 0.0 | 0.0 | 0.00 | 0.00 | 0.00 | 96 | 1022.9 |
| 20260509063237 | 14 | 115 | 0.0 | 0.0 | 0.00 | 0.00 | 0.00 | 96 | 1023.1 |
| 20260509062735 | 14 | 115 | 0.0 | 0.0 | 0.00 | 0.00 | 0.00 | 96 | 1023.0 |
| 20260509062232 | 14 | 115 | 0.0 | 0.0 | 0.00 | 0.00 | 0.00 | 96 | 1023.2 |
| 20260509061729 | 14 | 116 | 0.0 | 0.0 | 0.00 | 0.00 | 0.00 | 96 | 1023.1 |
| 20260509061227 | 14 | 116 | 0.0 | 0.0 | 0.00 | 0.00 | 0.00 | 95 | 1023.7 |
| 20260509060724 | 14 | 116 | 0.0 | 0.0 | 0.00 | 0.00 | 0.00 | 95 | 1023.7 |
| 20260509060220 | 15 | 101 | 0.0 | 0.0 | 0.00 | 0.00 | 0.00 | 95 | 1023.7 |
| 20260509055716 | 15 | 94 | 1.6 | 3.2 | 0.00 | 0.00 | 0.00 | 95 | 1023.5 |
| 20260509055212 | 15 | 119 | 0.0 | 0.0 | 0.00 | 0.00 | 0.00 | 94 | 1023.5 |
| 20260509054709 | 15 | 119 | 0.0 | 3.2 | 0.00 | 0.00 | 0.00 | 94 | 1023.3 |
| 20260509054206 | 15 | 93 | 0.0 | 0.0 | 0.00 | 0.00 | 0.00 | 93 | 1023.5 |
| 20260509053704 | 15 | 90 | 0.0 | 0.0 | 0.00 | 0.00 | 0.00 | 93 | 1023.4 |
| 20260509053201 | 15 | 93 | 1.6 | 8.0 | 0.00 | 0.00 | 0.00 | 93 | 1023.6 |
| 20260509052659 | 15 | 73 | 4.8 | 8.0 | 0.00 | 0.00 | 0.00 | 92 | 1023.5 |
| 20260509052156 | 15 | 85 | 0.0 | 0.0 | 0.00 | 0.00 | 0.00 | 93 | 1023.6 |